Location: Poughquag
(41.6090°N, 73.6820°W)
Time: 05:03:07
(UTC-05:00)

Explorer 11/Cluster Stage 4 - Visible Passes

Search period start: 05 December 2023 00:00
Search period end: 15 December 2023 00:00
Orbit: 465 x 1227 km, 28.8° (Epoch: 04 December)

Date Brightness Start Highest point End Pass type
(mag) Time Alt. Az. Time Alt. Az. Time Alt. Az.
05 Dec 9.2 17:42:13 10° SW 17:43:09 10° SSW 17:44:04 10° SSW visible
06 Dec 9.4 17:26:04 10° SW 17:27:08 11° SSW 17:28:10 10° SSW visible
07 Dec 9.5 17:09:55 10° SW 17:11:05 11° SSW 17:12:12 10° SSW visible
08 Dec 9.7 16:53:48 10° SW 16:55:00 11° SSW 16:56:09 10° SSW visible
